Date_and_time,latitude,longitude,wind_speed,RelWindDirFrom,WindDirFrom,air_pressure,air_temperature,relative_humidity,Temp,platform_speed_wrt_ground,air_pressure_at_mean_sea_level,platform_orientation
2019-02-28 23:40,50.6304433333333,-96.9807566666667,7.7,11.3,282,988.59,-9.7,58,0.46,0.0,1017.47,360.0
2019-02-28 23:50,50.6304383333333,-96.9807583333333,6.8,10.9,280,988.79,-9.8,54,0.46,0.0,1017.68,360.0
2019-03-01 00:00,50.6304383333333,-96.9807583333333,6.5,10.1,279,988.93,-10.3,53,0.46,0.0,1017.84,90.0
2019-03-01 00:10,50.6304233333333,-96.9807633333333,7.3,11.9,282,988.99,-10.8,54,0.46,0.0,1017.95,90.0
2019-03-01 00:20,50.6304366666667,-96.9807716666667,7.0,10.3,297,989.13,-11.1,56,0.46,0.0,1018.12,90.0
2019-03-01 00:30,50.63044,-96.98077,6.0,9.3,306,989.39,-11.4,62,0.46,0.0,1018.42,90.0
2019-03-01 00:40,50.6304383333333,-96.9807633333333,5.6,8.9,313,989.62,-11.7,72,0.46,0.0,1018.69,90.0
2019-03-01 00:50,50.6304416666667,-96.9807616666667,5.1,8.4,318,989.80,-12.0,79,0.46,0.0,1018.90,90.0
2019-03-01 01:00,50.6304433333333,-96.9807616666667,4.4,6.1,307,989.82,-12.2,80,0.46,0.0,1018.94,90.0
2019-03-01 01:10,50.6304433333333,-96.9807616666667,4.3,6.4,291,989.88,-12.4,81,0.47,0.0,1019.01,90.0
2019-03-01 01:20,50.6304433333333,-96.9807633333333,3.6,5.4,278,989.99,-12.5,84,0.46,0.0,1019.13,90.0
2019-03-01 01:30,50.630445,-96.980765,3.3,5.1,278,990.10,-12.7,84,0.47,0.0,1019.24,90.0
2019-03-01 01:40,50.6304483333333,-96.9807666666667,3.9,5.7,294,990.12,-12.7,83,0.47,0.0,1019.26,90.0
2019-03-01 01:50,50.6304483333333,-96.9807766666667,4.7,5.9,304,990.11,-12.7,82,0.47,0.0,1019.28,90.0
2019-03-01 02:00,50.6304516666667,-96.9807716666667,4.1,5.6,290,990.28,-12.8,82,0.47,0.0,1019.49,360.0
2019-03-01 02:10,50.630445,-96.9807766666667,3.5,6.5,51,990.33,-13.5,84,0.47,0.0,1019.60,360.0
2019-03-01 02:20,50.6304433333333,-96.98077,3.2,4.8,23,990.40,-15.0,91,0.46,0.0,1019.77,360.0
2019-03-01 02:30,50.6304466666667,-96.9807683333333,1.5,3.0,22,990.66,-15.3,91,0.47,0.0,1020.07,360.0
2019-03-01 02:40,50.6304483333333,-96.98077,1.4,2.3,53,990.77,-15.3,92,0.48,0.0,1020.20,360.0
2019-03-01 02:50,50.6304483333333,-96.9807683333333,1.8,2.6,62,990.86,-15.1,92,0.48,0.0,1020.29,360.0
2019-03-01 03:00,50.6304466666667,-96.9807666666667,2.2,3.8,44,990.90,-15.2,91,0.48,0.0,1020.36,311.7
2019-03-01 03:10,50.630445,-96.98077,2.4,3.7,35,991.00,-15.3,91,0.48,0.0,1020.47,311.7
2019-03-01 03:20,50.6304466666667,-96.98077,1.5,2.1,5,991.12,-15.3,90,0.48,0.0,1020.61,311.7
2019-03-01 03:30,50.6304466666667,-96.9807733333333,0.9,3.4,12,991.15,-15.5,91,0.48,0.0,1020.65,311.7
2019-03-01 03:40,50.6304383333333,-96.98077,2.2,4.6,129,991.18,-15.8,92,0.48,0.0,1020.70,311.7
2019-03-01 03:50,50.6304383333333,-96.9807666666667,0.6,1.9,173,991.36,-16.5,92,0.48,0.0,1020.93,311.7
2019-03-01 04:00,50.6304416666667,-96.9807633333333,2.4,3.2,197,991.51,-16.6,94,0.48,0.0,1021.13,270.0
2019-03-01 04:10,50.6304416666667,-96.9807666666667,2.3,3.5,211,991.55,-16.2,94,0.47,0.0,1021.24,270.0
2019-03-01 04:20,50.63044,-96.9807833333333,4.2,4.8,197,991.69,-16.7,93,0.47,0.0,1021.43,270.0
2019-03-01 04:30,50.630445,-96.980785,3.9,4.8,211,991.77,-16.8,93,0.47,0.0,1021.51,270.0
2019-03-01 04:40,50.6304466666667,-96.980785,3.2,3.8,223,991.82,-16.8,93,0.47,0.0,1021.55,270.0
2019-03-01 04:50,50.6304433333333,-96.980785,3.0,3.7,236,991.81,-16.6,94,0.47,0.0,1021.53,270.0
2019-03-01 05:00,50.6304466666667,-96.9807833333333,3.0,3.8,222,991.87,-16.7,93,0.47,0.0,1021.61,234.7
2019-03-01 05:10,50.6304533333333,-96.98076,1.1,2.3,259,991.83,-16.8,93,0.47,0.0,1021.58,234.7
2019-03-01 05:20,50.6304483333333,-96.9807666666667,1.0,1.6,229,991.78,-17.1,92,0.47,0.0,1021.55,234.7
2019-03-01 05:30,50.6304483333333,-96.9807733333333,2.1,2.7,225,991.86,-17.3,92,0.47,0.0,1021.67,234.7
2019-03-01 05:40,50.6304466666667,-96.980775,2.6,2.9,223,992.08,-17.4,92,0.48,0.0,1021.94,234.7
2019-03-01 05:50,50.6304083333333,-96.9807566666667,2.7,3.5,237,992.31,-17.3,92,0.48,0.0,1022.17,234.7
2019-03-01 06:00,50.6304533333333,-96.9807866666667,4.3,5.3,229,992.48,-17.8,91,0.48,0.0,1022.36,286.8
2019-03-01 06:10,50.6304283333333,-96.980725,4.5,5.4,236,992.57,-18.1,91,0.48,0.0,1022.49,286.8
2019-03-01 06:20,50.6304366666667,-96.9807566666667,4.3,5.1,239,992.61,-18.1,91,0.48,0.0,1022.54,286.8
2019-03-01 06:30,50.6304383333333,-96.9807516666667,3.9,5.3,240,992.70,-18.4,90,0.48,0.0,1022.65,286.8
2019-03-01 06:40,50.63044,-96.9807533333333,4.5,5.4,242,992.87,-18.4,90,0.48,0.0,1022.81,286.8
2019-03-01 06:50,50.6304416666667,-96.980755,4.0,5.3,243,992.97,-18.5,89,0.48,0.0,1022.93,286.8
2019-03-01 07:00,50.63044,-96.9807566666667,4.1,5.3,251,993.07,-18.7,88,0.48,0.0,1023.06,90.0
2019-03-01 07:10,50.6304416666667,-96.98076,4.1,5.8,252,993.11,-18.8,89,0.48,0.0,1023.12,90.0
2019-03-01 07:20,50.6304516666667,-96.9807833333333,2.7,4.3,256,993.08,-19.0,88,0.48,0.0,1023.11,90.0
2019-03-01 07:30,50.630445,-96.9807633333333,5.2,6.5,269,993.09,-19.3,87,0.48,0.0,1023.14,90.0
2019-03-01 07:40,50.6304466666667,-96.9807666666667,4.8,6.4,274,993.13,-19.5,87,0.48,0.0,1023.19,90.0
2019-03-01 07:50,50.6304466666667,-96.98077,4.5,6.1,273,993.19,-19.7,87,0.48,0.0,1023.29,90.0
2019-03-01 08:00,50.6304466666667,-96.9807716666667,3.7,5.3,263,993.31,-20.0,86,0.48,0.0,1023.46,90.0
2019-03-01 08:10,50.6304466666667,-96.9807733333333,4.4,5.9,275,993.24,-19.7,87,0.48,0.0,1023.36,90.0
2019-03-01 08:20,50.6304466666667,-96.980775,3.5,6.1,282,993.28,-19.8,86,0.48,0.0,1023.43,90.0
2019-03-01 08:30,50.6304466666667,-96.980775,1.8,3.8,274,993.43,-20.3,85,0.49,0.0,1023.62,90.0
2019-03-01 08:40,50.630445,-96.9807733333333,2.1,3.7,255,993.43,-20.3,86,0.49,0.0,1023.62,90.0
2019-03-01 08:50,50.6304583333333,-96.980755,2.4,3.8,264,993.48,-20.2,86,0.49,0.0,1023.68,90.0
2019-03-01 09:00,50.63046,-96.9807633333333,3.2,4.3,288,993.38,-20.0,86,0.48,0.0,1023.57,72.3
2019-03-01 09:10,50.6304466666667,-96.98076,2.9,4.0,282,993.35,-20.0,86,0.48,0.0,1023.56,72.3
2019-03-01 09:20,50.6304483333333,-96.980765,3.1,4.0,277,993.38,-20.3,86,0.48,0.0,1023.62,72.3
2019-03-01 09:30,50.63045,-96.98077,2.5,3.7,264,993.43,-20.6,85,0.48,0.0,1023.71,72.3
2019-03-01 09:40,50.63045,-96.9807666666667,2.0,2.7,278,993.35,-20.9,85,0.48,0.0,1023.65,72.3
2019-03-01 09:50,50.6304466666667,-96.9807666666667,1.8,3.2,291,993.27,-21.3,84,0.47,0.0,1023.61,72.3
2019-03-01 10:00,50.630445,-96.9807616666667,2.7,3.8,267,993.48,-21.4,84,0.47,0.0,1023.81,90.0
2019-03-01 10:10,50.6304383333333,-96.980755,2.7,3.5,270,993.67,-21.4,85,0.47,0.0,1024.01,90.0
2019-03-01 10:20,50.630445,-96.9807766666667,2.4,3.2,230,993.88,-21.8,84,0.46,0.0,1024.29,90.0
2019-03-01 10:30,50.6304416666667,-96.9807733333333,3.4,4.5,239,994.01,-22.3,83,0.47,0.0,1024.45,90.0
2019-03-01 10:40,50.63044,-96.98077,2.6,4.2,235,994.05,-22.4,83,0.47,0.0,1024.49,90.0
2019-03-01 10:50,50.6304316666667,-96.9807816666667,2.1,3.9,245,994.11,-22.4,83,0.47,0.0,1024.55,90.0
2019-03-01 11:00,50.6304333333333,-96.9807716666667,2.0,3.5,275,994.17,-22.4,83,0.46,0.0,1024.60,161.1
2019-03-01 11:10,50.6304383333333,-96.98077,3.8,5.6,273,994.20,-22.1,84,0.46,0.0,1024.64,161.1
2019-03-01 11:20,50.6304383333333,-96.98077,4.7,6.0,283,994.23,-21.7,85,0.45,0.0,1024.66,161.1
2019-03-01 11:30,50.6304366666667,-96.98077,4.1,5.9,300,994.28,-21.4,85,0.46,0.0,1024.70,161.1
2019-03-01 11:40,50.6304533333333,-96.9807716666667,2.0,4.9,328,994.39,-21.1,84,0.46,0.0,1024.83,161.1
2019-03-01 11:50,50.6304466666667,-96.98077,1.9,3.7,354,994.44,-21.1,84,0.45,0.0,1024.89,161.1
2019-03-01 12:00,50.6304383333333,-96.9807766666667,2.0,2.9,331,994.59,-21.4,83,0.45,0.0,1025.06,203.5
2019-03-01 12:10,50.6304333333333,-96.9807716666667,1.3,2.6,346,994.69,-21.4,83,0.45,0.0,1025.19,203.5
2019-03-01 12:20,50.63044,-96.98077,1.9,2.6,5,994.74,-22.0,83,0.45,0.0,1025.31,203.5
2019-03-01 12:30,50.6304383333333,-96.9807733333333,1.8,2.8,318,994.81,-21.6,84,0.45,0.0,1025.36,203.5
2019-03-01 12:40,50.6304366666667,-96.9807733333333,2.3,3.3,305,994.97,-21.1,84,0.45,0.0,1025.50,203.5
2019-03-01 12:50,50.6304366666667,-96.9807733333333,2.0,2.9,297,995.13,-21.0,83,0.45,0.0,1025.66,203.5
2019-03-01 13:00,50.630445,-96.9807733333333,2.1,3.4,295,995.31,-20.9,83,0.45,0.0,1025.81,270.0
2019-03-01 13:10,50.6304166666667,-96.9807616666667,1.9,3.5,277,995.42,-21.1,83,0.45,0.0,1025.92,270.0
2019-03-01 13:20,50.6304216666667,-96.9807666666667,1.5,2.3,267,995.56,-21.3,83,0.44,0.0,1026.06,270.0
2019-03-01 13:30,50.6304283333333,-96.9807766666667,1.1,1.9,244,995.67,-22.2,81,0.44,0.0,1026.21,270.0
2019-03-01 13:40,50.63043,-96.9807783333333,1.5,2.5,235,995.77,-22.6,81,0.44,0.0,1026.34,270.0
2019-03-01 13:50,50.6304283333333,-96.9807766666667,2.2,2.9,261,995.91,-22.6,80,0.44,0.0,1026.50,270.0
2019-03-01 14:00,50.6304283333333,-96.9807766666667,2.6,3.2,267,996.17,-21.9,81,0.44,0.0,1026.72,360.0
2019-03-01 14:10,50.6304033333333,-96.980795,2.2,3.0,251,996.33,-21.3,81,0.44,0.0,1026.89,360.0
2019-03-01 14:20,50.6304283333333,-96.9807833333333,2.1,3.3,236,996.46,-20.9,80,0.44,0.0,1026.97,360.0
2019-03-01 14:30,50.6304416666667,-96.980775,1.6,2.6,243,996.61,-20.6,80,0.44,0.0,1027.08,360.0
2019-03-01 14:40,50.6304216666667,-96.9807766666667,2.4,3.4,234,996.65,-20.4,79,0.44,0.0,1027.10,360.0
2019-03-01 14:50,50.6304283333333,-96.9807716666667,2.0,3.3,263,996.65,-20.0,79,0.44,0.0,1027.07,360.0
2019-03-01 15:00,50.6304283333333,-96.98077,0.9,2.4,264,996.79,-19.2,79,0.44,0.0,1027.17,360.0
2019-03-01 15:10,50.6304283333333,-96.9807683333333,2.2,3.4,257,996.79,-18.9,77,0.44,0.0,1027.17,360.0
2019-03-01 15:20,50.6304266666667,-96.9807683333333,1.6,2.9,318,996.84,-18.4,77,0.43,0.0,1027.25,360.0
2019-03-01 15:30,50.6304283333333,-96.98077,1.5,2.8,318,996.89,-17.6,77,0.43,0.0,1027.27,360.0
2019-03-01 15:40,50.6304266666667,-96.9807683333333,1.7,2.6,17,997.00,-17.2,76,0.43,0.0,1027.36,360.0
2019-03-01 15:50,50.6304266666667,-96.98077,1.9,2.9,10,997.03,-17.2,74,0.42,0.0,1027.35,360.0
2019-03-01 16:00,50.6304266666667,-96.98077,2.1,2.7,37,997.10,-17.2,74,0.43,0.0,1027.38,156.5
2019-03-01 16:10,50.6304266666667,-96.98077,2.6,3.4,48,997.20,-17.0,74,0.43,0.0,1027.45,156.5
2019-03-01 16:20,50.6304266666667,-96.9807716666667,1.6,3.0,81,997.39,-15.9,71,0.43,0.0,1027.56,156.5
2019-03-01 16:30,50.6304283333333,-96.9807716666667,2.2,3.8,102,997.50,-14.9,67,0.43,0.0,1027.60,156.5
2019-03-01 16:40,50.6304433333333,-96.9807866666667,1.3,2.6,108,997.57,-15.7,68,0.43,0.0,1027.70,156.5
2019-03-01 16:50,50.6304433333333,-96.980785,1.6,2.5,95,997.67,-14.1,63,0.43,0.0,1027.65,156.5
2019-03-01 17:00,50.63044,-96.9807816666667,1.5,3.4,94,997.78,-13.3,60,0.44,0.0,1027.71,356.8
2019-03-01 17:10,50.63044,-96.980785,2.8,3.8,93,997.91,-13.4,59,0.44,0.0,1027.82,356.8
2019-03-01 17:20,50.6304416666667,-96.9807833333333,3.3,4.3,89,997.97,-13.3,58,0.44,0.0,1027.83,356.8
2019-03-01 17:30,50.6304416666667,-96.98078,2.4,3.7,86,998.07,-12.7,56,0.44,0.0,1027.87,356.8
2019-03-01 17:40,50.6304416666667,-96.9807783333333,1.2,2.2,81,998.07,-12.4,55,0.44,0.0,1027.86,356.8
2019-03-01 17:50,50.6304416666667,-96.98078,1.0,1.7,74,998.12,-12.6,56,0.43,0.0,1027.92,356.8
2019-03-01 18:00,50.6304433333333,-96.98078,1.5,2.6,86,998.14,-11.3,52,0.43,0.0,1027.85,318.8
2019-03-01 18:10,50.63043,-96.9807716666667,2.6,3.5,97,998.24,-11.4,53,0.43,0.0,1027.90,318.8
2019-03-01 18:20,50.6304366666667,-96.98077,2.5,3.3,92,998.32,-12.5,57,0.43,0.0,1027.99,318.8
2019-03-01 18:30,50.6304366666667,-96.98077,2.5,3.6,66,998.40,-12.7,57,0.43,0.0,1028.13,318.8
2019-03-01 18:40,50.630435,-96.9807733333333,2.2,3.4,82,998.48,-12.9,58,0.43,0.0,1028.12,318.8
2019-03-01 18:50,50.63041,-96.9807483333333,3.6,5.3,107,998.52,-12.5,58,0.43,0.0,1028.10,318.8
2019-03-01 19:00,50.630425,-96.9807683333333,4.2,5.1,113,998.42,-14.5,66,0.44,0.0,1028.12,90.0
2019-03-01 19:10,50.630425,-96.9807716666667,3.3,4.0,110,998.39,-14.1,65,0.44,0.0,1028.06,90.0
2019-03-01 19:20,50.6304316666667,-96.980755,1.9,3.7,125,998.28,-13.7,65,0.44,0.0,1027.88,90.0
2019-03-01 19:30,50.6304366666667,-96.9807666666667,1.7,2.4,154,998.23,-13.7,64,0.44,0.0,1027.82,90.0
2019-03-01 19:40,50.630435,-96.98077,1.4,2.5,153,998.21,-13.4,64,0.44,0.0,1027.79,90.0
2019-03-01 19:50,50.6304383333333,-96.980775,2.2,3.4,105,998.11,-12.0,60,0.44,0.0,1027.53,90.0
2019-03-01 20:00,50.630435,-96.9807733333333,2.8,5.7,89,998.04,-12.0,61,0.45,0.0,1027.47,125.3
2019-03-01 20:10,50.630435,-96.9807733333333,2.3,4.7,113,998.03,-11.9,63,0.45,0.0,1027.52,125.3
2019-03-01 20:20,50.63045,-96.9807733333333,4.6,6.9,126,998.02,-13.5,68,0.44,0.0,1027.61,125.3
2019-03-01 20:30,50.6304483333333,-96.980765,5.4,6.8,99,998.02,-13.9,68,0.45,0.0,1027.64,125.3
2019-03-01 20:40,50.6304166666667,-96.9807833333333,6.3,9.9,83,998.04,-14.3,69,0.45,0.0,1027.66,125.3
2019-03-01 20:50,50.6304366666667,-96.980775,5.6,6.8,96,998.02,-14.5,70,0.45,0.0,1027.76,125.3
2019-03-01 21:00,50.6304416666667,-96.980775,4.1,5.6,87,998.01,-13.1,64,0.45,0.0,1027.65,90.0
2019-03-01 21:10,50.63043,-96.9807883333333,3.4,4.6,100,998.08,-11.7,60,0.45,0.0,1027.62,90.0
2019-03-01 21:20,50.6304333333333,-96.9807766666667,3.4,4.5,97,998.15,-13.0,66,0.46,0.0,1027.77,90.0
2019-03-01 21:30,50.6304333333333,-96.98077,3.2,4.8,85,998.11,-12.8,65,0.46,0.0,1027.70,90.0
2019-03-01 21:40,50.630435,-96.9807716666667,1.6,3.4,124,998.19,-13.6,68,0.46,0.0,1027.74,90.0
2019-03-01 21:50,50.630435,-96.98077,1.7,2.4,95,998.28,-13.5,69,0.46,0.0,1027.84,90.0
2019-03-01 22:00,50.630435,-96.9807683333333,1.0,1.9,78,998.30,-11.5,60,0.46,0.0,1027.73,38.0
2019-03-01 22:10,50.630435,-96.9807666666667,1.2,2.1,94,998.32,-11.9,63,0.46,0.0,1027.88,38.0
2019-03-01 22:20,50.630435,-96.9807666666667,1.5,2.5,132,998.41,-14.5,71,0.46,0.0,1028.14,38.0
2019-03-01 22:30,50.6304366666667,-96.9807683333333,1.5,1.9,157,998.45,-15.6,75,0.46,0.0,1028.27,38.0
2019-03-01 22:40,50.6304366666667,-96.9807683333333,1.6,2.2,146,998.48,-15.8,76,0.46,0.0,1028.32,38.0
2019-03-01 22:50,50.6304366666667,-96.9807683333333,1.3,2.4,146,998.62,-15.6,76,0.46,0.0,1028.37,38.0
2019-03-01 23:00,50.6304366666667,-96.98077,2.4,3.1,138,998.69,-15.7,76,0.46,0.0,1028.36,90.0
2019-03-01 23:10,50.6304366666667,-96.9807683333333,1.8,2.4,146,998.74,-15.8,76,0.47,0.0,1028.51,90.0
2019-03-01 23:20,50.63045,-96.98077,1.8,2.3,126,998.79,-15.4,77,0.47,0.0,1028.52,90.0
2019-03-01 23:30,50.6304283333333,-96.9807666666667,3.3,3.9,143,998.84,-16.0,78,0.47,0.0,1028.65,90.0
2019-03-01 23:40,50.6304316666667,-96.9807633333333,3.1,3.6,151,998.96,-16.2,77,0.47,0.0,1028.79,90.0
2019-03-01 23:50,50.6304333333333,-96.9807666666667,3.3,3.8,162,999.09,-16.1,75,0.47,0.0,1028.79,90.0
